When you browse on this site, cookies collect data to enhance your experience and personalize the content and advertising you see.
Visit our Privacy Policy to learn more. By continuing to use the site, you agree to this use of cookies and data.
  • In Italy
  • List of Countries
  • For 7 days
  • Water Temperature
  • Satellite Maps
  • Weather Map
  • Weather Widgets
  • user-avatar
    Login

    Hourly Weather Sveti Vlas

    Today, 22 March, Friday

    Time Temperature Precipitation Wind Pressure Humidity
    00:00 +7°C° 0 mm 1 mps 767 mmHg 75%
    01:00 +7°C° 0 mm 1 mps 767 mmHg 76%
    02:00 +6°C° 0 mm 2 mps 766 mmHg 74%
    03:00 +6°C° 0 mm 2 mps 766 mmHg 73%
    04:00 +5°C° 0 mm 3 mps 766 mmHg 73%
    05:00 +5°C° 0 mm 3 mps 766 mmHg 73%
    06:00 +5°C° 0 mm 3 mps 766 mmHg 70%
    07:00 +7°C° 0 mm 3 mps 766 mmHg 68%
    08:00 +8°C° 0 mm 3 mps 766 mmHg 66%
    09:00 +10°C° 0 mm 3 mps 766 mmHg 60%
    10:00 +12°C° 0 mm 3 mps 766 mmHg 54%
    11:00 +13°C° 0 mm 3 mps 766 mmHg 48%
    12:00 +14°C° 0 mm 3 mps 765 mmHg 47%
    13:00 +14°C° 0 mm 3 mps 765 mmHg 46%
    14:00 +16°C° 0 mm 3 mps 764 mmHg 44%
    15:00 +14°C° 0 mm 3 mps 764 mmHg 48%
    16:00 +13°C° 0 mm 3 mps 764 mmHg 52%
    17:00 +13°C° 0 mm 3 mps 764 mmHg 56%
    18:00 +13°C° 0 mm 2 mps 763 mmHg 61%
    19:00 +10°C° 0 mm 2 mps 763 mmHg 66%
    20:00 +9°C° 0 mm 2 mps 763 mmHg 71%
    21:00 +9°C° 0 mm 2 mps 763 mmHg 71%
    22:00 +9°C° 0 mm 2 mps 763 mmHg 71%
    23:00 +8°C° 0 mm 2 mps 763 mmHg 72%

    Tomorrow, 23 March, Saturday

    Time Temperature Precipitation Wind Pressure Humidity
    00:00 +8°C° 0 mm 2 mps 763 mmHg 71%
    01:00 +8°C° 0 mm 2 mps 763 mmHg 70%
    02:00 +8°C° 0 mm 3 mps 762 mmHg 69%
    03:00 +8°C° 0 mm 3 mps 762 mmHg 69%
    04:00 +9°C° 0 mm 3 mps 762 mmHg 69%
    05:00 +8°C° 0 mm 4 mps 762 mmHg 69%
    06:00 +8°C° 0 mm 4 mps 762 mmHg 70%
    07:00 +10°C° 0 mm 4 mps 762 mmHg 70%
    08:00 +10°C° 0 mm 4 mps 762 mmHg 71%
    09:00 +11°C° 0 mm 4 mps 762 mmHg 65%
    10:00 +12°C° 0 mm 4 mps 762 mmHg 59%
    11:00 +13°C° 0 mm 4 mps 762 mmHg 53%
    12:00 +13°C° 0 mm 4 mps 762 mmHg 54%
    13:00 +12°C° 0 mm 4 mps 762 mmHg 56%
    14:00 +12°C° 0 mm 4 mps 761 mmHg 57%
    15:00 +12°C° 0 mm 4 mps 761 mmHg 54%
    16:00 +11°C° 0 mm 4 mps 761 mmHg 52%
    17:00 +11°C° 0 mm 4 mps 761 mmHg 49%
    18:00 +10°C° 0 mm 3 mps 761 mmHg 52%
    19:00 +9°C° 0 mm 3 mps 762 mmHg 56%
    20:00 +8°C° 0 mm 3 mps 762 mmHg 59%
    21:00 +7°C° 0 mm 2 mps 762 mmHg 60%
    22:00 +8°C° 0 mm 1 mps 762 mmHg 60%
    23:00 +7°C° 0 mm 1 mps 762 mmHg 61%

    Day after tomorrow, 24 March, Sunday

    Time Temperature Precipitation Wind Pressure Humidity
    00:00 +7°C° 0 mm 1 mps 762 mmHg 61%
    01:00 +6°C° 0 mm 1 mps 762 mmHg 62%
    02:00 +6°C° 0 mm 1 mps 762 mmHg 63%
    03:00 +5°C° 0 mm 2 mps 762 mmHg 62%
    04:00 +4°C° 0 mm 2 mps 761 mmHg 61%
    05:00 +3°C° 0 mm 3 mps 761 mmHg 61%
    06:00 +4°C° 0 mm 3 mps 761 mmHg 55%
    07:00 +5°C° 0 mm 3 mps 761 mmHg 50%
    08:00 +7°C° 0 mm 3 mps 761 mmHg 44%
    09:00 +7°C° 0 mm 4 mps 761 mmHg 42%
    10:00 +10°C° 0 mm 4 mps 761 mmHg 39%
    11:00 +11°C° 0 mm 4 mps 761 mmHg 36%
    12:00 +12°C° 0 mm 4 mps 761 mmHg 36%
    13:00 +12°C° 0 mm 4 mps 761 mmHg 36%
    14:00 +13°C° 0 mm 4 mps 760 mmHg 36%
    15:00 +12°C° 0 mm 4 mps 760 mmHg 40%
    16:00 +11°C° 0 mm 4 mps 760 mmHg 45%
    17:00 +10°C° 0 mm 4 mps 759 mmHg 50%
    18:00 +9°C° 0 mm 3 mps 760 mmHg 57%
    19:00 +8°C° 0 mm 3 mps 760 mmHg 64%
    20:00 +6°C° 0 mm 2 mps 760 mmHg 72%
    21:00 +6°C° 0 mm 2 mps 760 mmHg 73%
    22:00 +7°C° 0 mm 1 mps 760 mmHg 74%
    23:00 +6°C° 0 mm 1 mps 760 mmHg 75%

    25 March, Monday

    Time Temperature Precipitation Wind Pressure Humidity
    00:00 +6°C° 0 mm 1 mps 759 mmHg 76%
    01:00 +6°C° 0 mm 1 mps 759 mmHg 77%
    02:00 +6°C° 0 mm 1 mps 759 mmHg 78%
    03:00 +5°C° 0 mm 2 mps 758 mmHg 77%
    04:00 +5°C° 0 mm 2 mps 758 mmHg 76%
    05:00 +5°C° 0 mm 2 mps 758 mmHg 76%
    06:00 +6°C° 0 mm 2 mps 757 mmHg 70%
    07:00 +7°C° 0 mm 3 mps 757 mmHg 65%
    08:00 +8°C° 0 mm 3 mps 757 mmHg 59%
    09:00 +10°C° 0 mm 3 mps 757 mmHg 53%
    10:00 +12°C° 0 mm 3 mps 757 mmHg 46%
    11:00 +14°C° 0 mm 3 mps 756 mmHg 39%
    12:00 +15°C° 0 mm 4 mps 756 mmHg 38%
    13:00 +17°C° 0 mm 4 mps 755 mmHg 37%
    14:00 +18°C° 0 mm 4 mps 755 mmHg 36%
    15:00 +17°C° 0 mm 4 mps 754 mmHg 40%
    16:00 +16°C° 0 mm 5 mps 754 mmHg 44%
    17:00 +15°C° 0 mm 5 mps 753 mmHg 48%
    18:00 +13°C° 0 mm 5 mps 753 mmHg 54%
    19:00 +12°C° 0 mm 5 mps 753 mmHg 60%
    20:00 +9°C° 0 mm 5 mps 753 mmHg 66%
    21:00 +10°C° 0 mm 4 mps 753 mmHg 68%
    22:00 +10°C° 0 mm 4 mps 753 mmHg 69%
    23:00 +10°C° 0 mm 3 mps 753 mmHg 71%

    26 March, Tuesday

    Time Temperature Precipitation Wind Pressure Humidity
    00:00 +9°C° 0 mm 3 mps 753 mmHg 69%
    01:00 +9°C° 0 mm 3 mps 752 mmHg 66%
    02:00 +9°C° 0 mm 3 mps 752 mmHg 63%
    03:00 +9°C° 0 mm 3 mps 752 mmHg 64%
    04:00 +8°C° 0 mm 3 mps 752 mmHg 64%
    05:00 +8°C° 0 mm 2 mps 752 mmHg 65%
    06:00 +9°C° 0 mm 2 mps 752 mmHg 63%
    07:00 +10°C° 0 mm 2 mps 752 mmHg 61%
    08:00 +12°C° 0 mm 2 mps 752 mmHg 60%
    09:00 +12°C° 0 mm 3 mps 752 mmHg 59%
    10:00 +13°C° 0 mm 4 mps 752 mmHg 59%
    11:00 +14°C° 0 mm 4 mps 753 mmHg 59%
    12:00 +14°C° 0 mm 6 mps 753 mmHg 59%
    13:00 +14°C° 0 mm 7 mps 753 mmHg 58%
    14:00 +13°C° 0 mm 9 mps 753 mmHg 58%
    15:00 +12°C° 0 mm 9 mps 753 mmHg 60%
    16:00 +10°C° 0 mm 9 mps 753 mmHg 62%
    17:00 +9°C° 0 mm 8 mps 754 mmHg 64%
    18:00 +7°C° 0.4 mm 8 mps 754 mmHg 68%
    19:00 +8°C° 0.4 mm 7 mps 755 mmHg 71%
    20:00 +6°C° 0.4 mm 7 mps 755 mmHg 74%
    21:00 +7°C° 0.2 mm 6 mps 756 mmHg 73%
    22:00 +7°C° 0.2 mm 6 mps 756 mmHg 72%
    23:00 +7°C° 0.2 mm 6 mps 756 mmHg 72%

    27 March, Wednesday

    Time Temperature Precipitation Wind Pressure Humidity
    00:00 +5°C° 0 mm 6 mps 756 mmHg 72%
    01:00 +5°C° 0 mm 7 mps 756 mmHg 73%
    02:00 +5°C° 0 mm 7 mps 756 mmHg 74%
    03:00 +5°C° 0 mm 7 mps 757 mmHg 74%
    04:00 +4°C° 0 mm 7 mps 757 mmHg 75%
    05:00 +4°C° 0 mm 8 mps 757 mmHg 75%
    06:00 +4°C° 0 mm 8 mps 758 mmHg 75%
    07:00 +4°C° 0 mm 8 mps 758 mmHg 74%
    08:00 +5°C° 0 mm 9 mps 758 mmHg 73%
    09:00 +5°C° 0 mm 9 mps 759 mmHg 70%
    10:00 +6°C° 0 mm 9 mps 759 mmHg 66%
    11:00 +7°C° 0 mm 9 mps 759 mmHg 63%
    12:00 +7°C° 0 mm 9 mps 759 mmHg 61%
    13:00 +8°C° 0 mm 9 mps 759 mmHg 59%
    14:00 +9°C° 0 mm 8 mps 759 mmHg 56%
    15:00 +9°C° 0 mm 8 mps 760 mmHg 56%
    16:00 +9°C° 0 mm 8 mps 760 mmHg 55%
    17:00 +9°C° 0 mm 8 mps 760 mmHg 55%
    18:00 +7°C° 0 mm 8 mps 760 mmHg 58%
    19:00 +6°C° 0 mm 8 mps 761 mmHg 62%
    20:00 +5°C° 0 mm 7 mps 761 mmHg 65%
    21:00 +5°C° 0 mm 7 mps 761 mmHg 67%
    22:00 +5°C° 0 mm 7 mps 762 mmHg 70%
    23:00 +4°C° 0 mm 6 mps 762 mmHg 72%
    Show more